Flag for Canada Weather past 2 weeks in Norfolk, Ontario, Canada

Now
53 °F

Cool.


Feels Like: 49 °F
Forecast: N/A
Wind: 12 mph from Northwest

Location: Delhi CS

Current Time: Sep 22, 2014 at 4:52:02 PM

Latest Report: Sep 22, 2014 at 4:00 PM


Visibility: N/A

Pressure: 30.13 "Hg

Humidity: 59%

Dew point: 39 °F

Location of NorfolkLocation

Historic Weather in Norfolk — Graph

°F

Norfolk temperature yesterday

Maximum temperature yesterday: 71 °F (at 11:00 AM)
Minimum temperature yesterday: 51 °F (at 11:00 PM)
Average temperature yesterday: 65 °F

Past Weeks' High & Low Weather Summary

 TemperatureHumidityPressure
High75 °F (Sep 10, 3:00 PM)100% (Sep 8, 5:00 AM)30.33 "Hg (Sep 8, 5:00 AM)
Low38 °F (Sep 14, 3:00 AM)38% (Sep 7, 6:00 PM)29.54 "Hg (Sep 21, 9:00 AM)
Average56 °F81%30.03 "Hg
* Reported Sep 7 3:00 PM — Sep 22 3:00 PM, Norfolk, Weather by CustomWeather, © 2014

Note: Actual official high and low records may vary slightly from our data, if they occured in-between our weather recording intervals... More about our weather records

Advertising

Norfolk weather history for previous 24 hours

 ConditionsComfort  
Time TempWeatherWind HumidityBarometerVisibility
3:00 PM
Sep 22
53 °FCool.13 mph58%30.12 "HgN/A
2:00 PM53 °FCool.12 mph59%30.11 "HgN/A
1:00 PM51 °FCool.9 mph64%30.11 "HgN/A
12:00 PM49 °FCool.12 mph66%30.11 "HgN/A
11:00 AM46 °FCool.12 mph83%30.11 "HgN/A
10:00 AM48 °FCool.12 mph72%30.08 "HgN/A
9:00 AM48 °FCool.10 mph75%30.05 "HgN/A
8:00 AM48 °FCool.8 mph70%30.02 "HgN/A
7:00 AM48 °FCool.6 mph79%30.00 "HgN/A
6:00 AM48 °FCool.7 mph82%29.97 "HgN/A
5:00 AM48 °FCool.7 mph80%29.94 "HgN/A
4:00 AM48 °FCool.9 mph81%29.91 "HgN/A
3:00 AM48 °FCool.9 mph84%29.89 "HgN/A
2:00 AM48 °FCool.7 mph87%29.88 "HgN/A
1:00 AM50 °FCool.12 mph81%29.85 "HgN/A
12:00 AM50 °FCool.13 mph80%29.82 "HgN/A
11:00 PM
Sep 21
51 °FCool.17 mph80%29.80 "HgN/A
10:00 PM52 °FCool.15 mph81%29.76 "HgN/A
9:00 PM55 °FCool.18 mph87%29.70 "HgN/A
8:00 PM57 °FCool.6 mph89%29.64 "HgN/A
7:00 PM59 °FCool.6 mph80%29.64 "HgN/A
6:00 PM64 °FMild.8 mph63%29.61 "HgN/A
5:00 PM66 °FMild.6 mph54%29.59 "HgN/A
4:00 PM70 °FMild.9 mph52%29.58 "HgN/A
Weather by CustomWeather, © 2014

See weather overviewHow to use our weather pages